| time (UTC) | temp F | wind direction | speed knots | gust knots | rain 1hr in | rain 24hr in | rain mn in | humidity % | barometer mb |
| 20260503184634 | 57 | 293 | 7.0 | 12.2 | 0.01 | 0.21 | 0.18 | 47 | 1014.5 |
| 20260503184143 | 56 | 279 | 4.3 | 10.4 | 0.01 | 0.21 | 0.18 | 46 | 1014.6 |
| 20260503183635 | 55 | 304 | 5.2 | 13.0 | 0.01 | 0.21 | 0.18 | 44 | 1014.6 |
| 20260503183123 | 55 | 284 | 7.0 | 16.5 | 0.01 | 0.21 | 0.18 | 41 | 1014.7 |
| 20260503182619 | 55 | 257 | 9.6 | 21.7 | 0.01 | 0.21 | 0.18 | 42 | 1014.8 |
| 20260503182134 | 55 | 270 | 10.4 | 17.4 | 0.01 | 0.21 | 0.18 | 44 | 1014.8 |
| 20260503181623 | 56 | 18 | 6.1 | 12.2 | 0.00 | 0.20 | 0.17 | 44 | 1014.6 |
| 20260503181119 | 55 | 307 | 6.1 | 14.8 | 0.00 | 0.20 | 0.17 | 42 | 1014.7 |
| 20260503180652 | 55 | 293 | 9.6 | 15.6 | 0.00 | 0.20 | 0.17 | 43 | 1014.8 |
| 20260503180125 | 55 | 288 | 9.6 | 17.4 | 0.01 | 0.20 | 0.17 | 48 | 1015.0 |
| 20260503175619 | 54 | 255 | 8.7 | 17.4 | 0.01 | 0.20 | 0.17 | 48 | 1014.9 |
| 20260503175133 | 54 | 233 | 8.7 | 16.5 | 0.01 | 0.20 | 0.17 | 46 | 1015.1 |
| 20260503174642 | 54 | 220 | 9.6 | 16.5 | 0.01 | 0.20 | 0.17 | 45 | 1015.0 |
| 20260503174157 | 54 | 246 | 8.7 | 18.2 | 0.01 | 0.20 | 0.17 | 45 | 1015.1 |
| 20260503173621 | 54 | 275 | 9.6 | 18.2 | 0.01 | 0.20 | 0.17 | 47 | 1015.1 |
| 20260503173135 | 54 | 243 | 8.7 | 14.8 | 0.01 | 0.20 | 0.17 | 45 | 1015.0 |
| 20260503172624 | 54 | 212 | 7.8 | 19.1 | 0.01 | 0.20 | 0.17 | 46 | 1015.0 |
| 20260503172118 | 54 | 232 | 13.9 | 19.1 | 0.01 | 0.20 | 0.17 | 44 | 1015.0 |
| 20260503171633 | 54 | 314 | 5.2 | 20.9 | 0.01 | 0.20 | 0.17 | 49 | 1015.1 |
| 20260503171142 | 53 | 241 | 9.6 | 20.9 | 0.01 | 0.20 | 0.17 | 50 | 1015.1 |
| 20260503170634 | 53 | 300 | 7.8 | 17.4 | 0.01 | 0.20 | 0.17 | 47 | 1015.1 |
| 20260503170120 | 53 | 289 | 8.7 | 17.4 | 0.01 | 0.19 | 0.16 | 47 | 1015.3 |
| 20260503160155 | 51 | 279 | 6.1 | 16.5 | 0.01 | 0.18 | 0.15 | 49 | 1015.9 |
| 20260503150638 | 48 | 306 | 6.1 | 13.0 | 0.02 | 0.17 | 0.14 | 50 | 1016.2 |
| 20260503150132 | 48 | 222 | 7.8 | 14.8 | 0.02 | 0.17 | 0.14 | 51 | 1016.2 |
| 20260503140132 | 46 | 255 | 5.2 | 13.0 | 0.03 | 0.16 | 0.12 | 57 | 1016.3 |
| 20260503131119 | 44 | 272 | 3.5 | 15.6 | 0.04 | 0.13 | 0.09 | 66 | 1016.5 |
| 20260503130653 | 44 | 272 | 6.1 | 17.4 | 0.05 | 0.13 | 0.09 | 68 | 1016.5 |
| 20260503130117 | 43 | 203 | 9.6 | 16.5 | 0.05 | 0.13 | 0.09 | 68 | 1016.4 |
| 20260503120137 | 40 | 252 | 7.0 | 13.0 | 0.04 | 0.08 | 0.04 | 75 | 1016.1 |
| 20260503110626 | 33 | 210 | 0.0 | 2.6 | 0.00 | 0.04 | 0.00 | 88 | 1015.8 |
| 20260503110120 | 32 | 210 | 0.9 | 2.6 | 0.00 | 0.04 | 0.00 | 88 | 1015.7 |
| 20260503100134 | 29 | 225 | 1.7 | 3.5 | 0.00 | 0.04 | 0.00 | 88 | 1015.1 |
| 20260503090138 | 29 | 205 | 0.9 | 3.5 | 0.01 | 0.04 | 0.04 | 87 | 1015.0 |
| 20260503081629 | 31 | 239 | 1.7 | 3.5 | 0.00 | 0.03 | 0.03 | 86 | 1014.8 |
| 20260503081141 | 32 | 268 | 0.0 | 3.5 | 0.00 | 0.03 | 0.03 | 86 | 1014.8 |
| 20260503080620 | 32 | 295 | 0.9 | 7.0 | 0.00 | 0.04 | 0.03 | 86 | 1014.8 |
| 20260503080132 | 32 | 297 | 2.6 | 7.0 | 0.00 | 0.04 | 0.03 | 86 | 1014.7 |
| 20260503072622 | 33 | 264 | 0.0 | 4.3 | 0.00 | 0.04 | 0.03 | 84 | 1014.4 |
| 20260503072137 | 34 | 287 | 0.9 | 9.6 | 0.00 | 0.04 | 0.03 | 84 | 1014.4 |
| 20260503071623 | 34 | 253 | 1.7 | 9.6 | 0.00 | 0.04 | 0.03 | 85 | 1014.4 |
| 20260503071118 | 34 | 302 | 0.9 | 10.4 | 0.00 | 0.04 | 0.03 | 85 | 1014.4 |
| 20260503070632 | 33 | 222 | 3.5 | 8.7 | 0.00 | 0.04 | 0.03 | 86 | 1014.4 |
| 20260503070139 | 32 | 291 | 2.6 | 5.2 | 0.00 | 0.04 | 0.03 | 86 | 1014.3 |
| 20260503060122 | 35 | 276 | 0.9 | 1.7 | 0.00 | 0.04 | 0.03 | 84 | 1014.4 |
| 20260503055124 | 34 | 276 | 1.7 | 8.7 | 0.00 | 0.04 | 0.03 | 86 | 1014.4 |
| 20260503054638 | 33 | 285 | 1.7 | 5.2 | 0.00 | 0.04 | 0.03 | 86 | 1014.4 |
| 20260503054133 | 33 | 282 | 0.9 | 4.3 | 0.00 | 0.04 | 0.03 | 86 | 1014.4 |
| 20260503053619 | 33 | 280 | 0.9 | 4.3 | 0.00 | 0.04 | 0.03 | 86 | 1014.4 |
| 20260503053132 | 33 | 258 | 0.0 | 3.5 | 0.00 | 0.04 | 0.03 | 85 | 1014.4 |
| 20260503052622 | 33 | 249 | 0.9 | 3.5 | 0.00 | 0.04 | 0.03 | 85 | 1014.4 |
| 20260503052134 | 33 | 249 | 0.9 | 3.5 | 0.00 | 0.04 | 0.03 | 85 | 1014.5 |
| 20260503051621 | 34 | 245 | 1.7 | 3.5 | 0.00 | 0.04 | 0.03 | 85 | 1014.5 |
| 20260503051157 | 34 | 246 | 1.7 | 3.5 | 0.00 | 0.04 | 0.03 | 85 | 1014.5 |
| 20260503050623 | 34 | 245 | 1.7 | 4.3 | 0.00 | 0.05 | 0.03 | 85 | 1014.6 |
| 20260503050117 | 34 | 246 | 2.6 | 4.3 | 0.00 | 0.05 | 0.03 | 85 | 1014.6 |
| 20260503045633 | 34 | 229 | 2.6 | 4.3 | 0.00 | 0.05 | 0.03 | 85 | 1014.6 |
| 20260503045121 | 34 | 266 | 1.7 | 3.5 | 0.00 | 0.05 | 0.03 | 84 | 1014.7 |
| 20260503044630 | 34 | 266 | 1.7 | 5.2 | 0.00 | 0.05 | 0.03 | 84 | 1014.7 |
| 20260503044123 | 34 | 268 | 0.9 | 5.2 | 0.00 | 0.05 | 0.03 | 83 | 1014.8 |
| 20260503043617 | 35 | 266 | 1.7 | 3.5 | 0.00 | 0.05 | 0.03 | 82 | 1014.8 |
| 20260503043131 | 35 | 273 | 0.0 | 2.6 | 0.00 | 0.05 | 0.03 | 81 | 1014.8 |
| 20260503042628 | 35 | 273 | 0.9 | 2.6 | 0.00 | 0.05 | 0.03 | 81 | 1014.7 |
| 20260503042122 | 36 | 273 | 0.0 | 2.6 | 0.00 | 0.05 | 0.03 | 80 | 1014.8 |
| 20260503041616 | 36 | 273 | 0.9 | 2.6 | 0.00 | 0.05 | 0.03 | 78 | 1014.7 |
| 20260503041131 | 37 | 274 | 0.9 | 5.2 | 0.00 | 0.05 | 0.03 | 78 | 1014.8 |
| 20260503040624 | 37 | 274 | 1.7 | 5.2 | 0.00 | 0.05 | 0.03 | 77 | 1014.8 |
| 20260503040117 | 38 | 297 | 0.9 | 3.5 | 0.00 | 0.05 | 0.03 | 76 | 1014.7 |
| 20260503035626 | 38 | 298 | 0.9 | 3.5 | 0.01 | 0.05 | 0.03 | 76 | 1014.7 |
| 20260503035119 | 38 | 309 | 0.0 | 2.6 | 0.01 | 0.05 | 0.03 | 76 | 1014.7 |
| 20260503034635 | 38 | 309 | 0.9 | 5.2 | 0.01 | 0.05 | 0.03 | 75 | 1014.6 |
| 20260503034124 | 39 | 308 | 2.6 | 8.7 | 0.01 | 0.05 | 0.03 | 75 | 1014.7 |
| 20260503033658 | 39 | 307 | 2.6 | 8.7 | 0.01 | 0.05 | 0.03 | 75 | 1014.7 |
| 20260503033124 | 39 | 306 | 1.7 | 6.1 | 0.01 | 0.05 | 0.03 | 75 | 1014.8 |
| 20260503032639 | 40 | 282 | 1.7 | 7.8 | 0.01 | 0.05 | 0.03 | 75 | 1014.8 |
| 20260503032125 | 40 | 282 | 0.9 | 10.4 | 0.01 | 0.05 | 0.03 | 74 | 1014.9 |
| 20260503031640 | 40 | 268 | 5.2 | 8.7 | 0.01 | 0.05 | 0.03 | 75 | 1014.9 |
| 20260503031136 | 40 | 314 | 3.5 | 8.7 | 0.01 | 0.05 | 0.03 | 75 | 1014.6 |
| 20260503030645 | 41 | 14 | 5.2 | 9.6 | 0.01 | 0.05 | 0.03 | 74 | 1014.5 |
| 20260503030138 | 41 | 360 | 5.2 | 10.4 | 0.01 | 0.05 | 0.03 | 74 | 1014.7 |
| 20260503025624 | 41 | 324 | 3.5 | 10.4 | 0.00 | 0.04 | 0.02 | 75 | 1014.9 |
| 20260503025139 | 41 | 301 | 4.3 | 7.8 | 0.00 | 0.04 | 0.02 | 76 | 1014.9 |
| 20260503024626 | 41 | 281 | 0.9 | 4.3 | 0.00 | 0.04 | 0.02 | 76 | 1014.9 |
| 20260503024138 | 41 | 296 | 0.0 | 8.7 | 0.00 | 0.04 | 0.02 | 76 | 1015.0 |
| 20260503023634 | 41 | 281 | 2.6 | 8.7 | 0.00 | 0.04 | 0.02 | 76 | 1015.1 |
| 20260503023120 | 41 | 304 | 6.1 | 8.7 | 0.00 | 0.04 | 0.02 | 77 | 1015.2 |
| 20260503022657 | 41 | 297 | 3.5 | 8.7 | 0.00 | 0.04 | 0.02 | 77 | 1015.2 |
| 20260503022122 | 41 | 289 | 0.9 | 9.6 | 0.00 | 0.04 | 0.02 | 77 | 1015.1 |
| 20260503021636 | 41 | 303 | 2.6 | 7.0 | 0.00 | 0.04 | 0.02 | 78 | 1015.1 |
| 20260503021124 | 41 | 305 | 1.7 | 7.8 | 0.00 | 0.04 | 0.02 | 78 | 1015.1 |
| 20260503020618 | 41 | 286 | 4.3 | 7.8 | 0.00 | 0.05 | 0.02 | 78 | 1015.0 |
| 20260503020132 | 41 | 297 | 0.9 | 7.8 | 0.00 | 0.05 | 0.02 | 78 | 1015.1 |
| 20260503015642 | 41 | 292 | 6.1 | 7.8 | 0.00 | 0.05 | 0.02 | 78 | 1015.0 |
| 20260503015127 | 41 | 305 | 0.9 | 4.3 | 0.00 | 0.05 | 0.02 | 78 | 1014.9 |
| 20260503014703 | 41 | 298 | 0.9 | 2.6 | 0.00 | 0.05 | 0.02 | 78 | 1014.9 |
| 20260503014144 | 41 | 299 | 0.9 | 3.5 | 0.00 | 0.05 | 0.02 | 78 | 1014.8 |
| 20260503013637 | 41 | 301 | 0.9 | 4.3 | 0.00 | 0.05 | 0.02 | 78 | 1014.8 |
| 20260503013124 | 41 | 299 | 0.0 | 7.0 | 0.00 | 0.05 | 0.02 | 78 | 1014.8 |
| 20260503012638 | 41 | 300 | 2.6 | 6.1 | 0.00 | 0.05 | 0.02 | 78 | 1014.7 |
| 20260503012124 | 41 | 270 | 0.0 | 7.8 | 0.00 | 0.05 | 0.02 | 78 | 1014.7 |
| 20260503011638 | 41 | 270 | 2.6 | 9.6 | 0.00 | 0.05 | 0.02 | 78 | 1014.8 |
| 20260503011125 | 41 | 297 | 5.2 | 9.6 | 0.00 | 0.05 | 0.02 | 78 | 1014.7 |
| 20260503010619 | 41 | 316 | 4.3 | 9.6 | 0.00 | 0.05 | 0.02 | 79 | 1014.5 |
| 20260503010127 | 41 | 287 | 4.3 | 9.6 | 0.00 | 0.05 | 0.02 | 79 | 1014.6 |
| 20260503005622 | 41 | 294 | 4.3 | 9.6 | 0.00 | 0.05 | 0.02 | 80 | 1014.6 |
| 20260503005135 | 41 | 285 | 2.6 | 7.8 | 0.00 | 0.05 | 0.02 | 80 | 1014.5 |
| 20260503004650 | 40 | 304 | 4.3 | 7.0 | 0.00 | 0.05 | 0.02 | 81 | 1014.5 |
| 20260503004125 | 40 | 247 | 0.9 | 2.6 | 0.00 | 0.05 | 0.02 | 81 | 1014.3 |
| 20260503003638 | 41 | 243 | 0.0 | 2.6 | 0.00 | 0.05 | 0.02 | 80 | 1014.3 |
| 20260503003125 | 41 | 243 | 0.9 | 4.3 | 0.00 | 0.05 | 0.02 | 80 | 1014.3 |
| 20260503002640 | 41 | 291 | 0.0 | 6.1 | 0.00 | 0.05 | 0.02 | 80 | 1014.3 |
| 20260503002126 | 41 | 272 | 0.9 | 6.1 | 0.00 | 0.05 | 0.02 | 80 | 1014.2 |
| 20260503001620 | 41 | 306 | 0.9 | 4.3 | 0.00 | 0.05 | 0.02 | 80 | 1014.2 |
| 20260503001137 | 41 | 342 | 0.9 | 4.3 | 0.00 | 0.05 | 0.02 | 80 | 1014.3 |
| 20260503000624 | 41 | 327 | 1.7 | 5.2 | 0.00 | 0.06 | 0.02 | 80 | 1014.3 |
| 20260503000138 | 41 | 328 | 1.7 | 7.0 | 0.00 | 0.06 | 0.02 | 79 | 1014.2 |
| 20260502235626 | 41 | 306 | 2.6 | 7.8 | 0.00 | 0.06 | 0.02 | 79 | 1014.2 |
| 20260502235119 | 42 | 297 | 4.3 | 8.7 | 0.00 | 0.06 | 0.02 | 78 | 1014.3 |
| 20260502234634 | 42 | 302 | 5.2 | 8.7 | 0.00 | 0.06 | 0.02 | 76 | 1014.2 |
| 20260502234122 | 43 | 322 | 4.3 | 10.4 | 0.00 | 0.06 | 0.02 | 74 | 1014.2 |
| 20260502233635 | 43 | 326 | 6.1 | 10.4 | 0.00 | 0.06 | 0.02 | 73 | 1014.0 |
| 20260502233142 | 43 | 282 | 3.5 | 8.7 | 0.00 | 0.06 | 0.02 | 72 | 1013.9 |
| 20260502232657 | 43 | 320 | 6.1 | 13.0 | 0.00 | 0.06 | 0.02 | 72 | 1013.9 |
| 20260502232121 | 43 | 342 | 7.0 | 13.0 | 0.00 | 0.06 | 0.02 | 71 | 1013.8 |
| 20260502231636 | 43 | 311 | 7.0 | 13.9 | 0.00 | 0.06 | 0.02 | 71 | 1013.8 |
| 20260502231125 | 43 | 298 | 7.8 | 13.9 | 0.00 | 0.06 | 0.02 | 70 | 1013.8 |
| 20260502230617 | 44 | 314 | 4.3 | 10.4 | 0.00 | 0.07 | 0.02 | 72 | 1013.8 |
| 20260502230148 | 44 | 296 | 7.0 | 15.6 | 0.00 | 0.07 | 0.02 | 71 | 1013.7 |
| 20260502225623 | 44 | 305 | 7.8 | 15.6 | 0.00 | 0.07 | 0.02 | 71 | 1013.7 |
| 20260502225116 | 44 | 268 | 6.1 | 10.4 | 0.00 | 0.07 | 0.02 | 73 | 1013.7 |
| 20260502224630 | 44 | 318 | 2.6 | 11.3 | 0.00 | 0.07 | 0.02 | 73 | 1013.6 |
| 20260502224145 | 44 | 284 | 7.8 | 13.0 | 0.00 | 0.07 | 0.02 | 72 | 1013.5 |
| 20260502223638 | 45 | 343 | 7.0 | 13.0 | 0.00 | 0.07 | 0.02 | 72 | 1013.6 |
| 20260502223126 | 45 | 308 | 7.0 | 12.2 | 0.00 | 0.07 | 0.02 | 72 | 1013.4 |
| 20260502222623 | 45 | 301 | 7.8 | 11.3 | 0.00 | 0.07 | 0.02 | 70 | 1013.5 |
| 20260502222118 | 45 | 325 | 6.1 | 14.8 | 0.00 | 0.07 | 0.02 | 70 | 1013.4 |
| 20260502221633 | 45 | 274 | 5.2 | 14.8 | 0.00 | 0.07 | 0.02 | 69 | 1013.4 |
| 20260502221141 | 46 | 263 | 4.3 | 10.4 | 0.00 | 0.07 | 0.02 | 69 | 1013.3 |
| 20260502220636 | 46 | 278 | 6.1 | 12.2 | 0.00 | 0.08 | 0.02 | 68 | 1013.3 |
| 20260502220123 | 46 | 309 | 7.8 | 12.2 | 0.00 | 0.08 | 0.02 | 70 | 1013.4 |
| 20260502215620 | 46 | 278 | 7.0 | 12.2 | 0.00 | 0.08 | 0.02 | 72 | 1013.4 |
| 20260502215135 | 45 | 315 | 4.3 | 11.3 | 0.00 | 0.08 | 0.02 | 75 | 1013.4 |
| 20260502214621 | 45 | 272 | 6.1 | 11.3 | 0.00 | 0.08 | 0.02 | 74 | 1013.4 |
| 20260502214158 | 45 | 311 | 8.7 | 13.0 | 0.00 | 0.08 | 0.02 | 72 | 1013.5 |
| 20260502213623 | 46 | 318 | 7.0 | 14.8 | 0.00 | 0.08 | 0.02 | 68 | 1013.4 |
| 20260502213118 | 47 | 309 | 9.6 | 14.8 | 0.00 | 0.08 | 0.02 | 63 | 1013.2 |
| 20260502212635 | 47 | 272 | 8.7 | 13.0 | 0.00 | 0.08 | 0.02 | 61 | 1013.2 |
| 20260502212124 | 48 | 293 | 7.0 | 13.0 | 0.00 | 0.08 | 0.02 | 62 | 1013.0 |
| 20260502211655 | 48 | 251 | 3.5 | 9.6 | 0.00 | 0.08 | 0.02 | 61 | 1013.0 |
| 20260502211121 | 48 | 237 | 5.2 | 8.7 | 0.00 | 0.08 | 0.02 | 61 | 1013.0 |
| 20260502210634 | 48 | 270 | 6.1 | 12.2 | 0.00 | 0.10 | 0.02 | 63 | 1012.9 |
| 20260502210140 | 48 | 320 | 7.0 | 12.2 | 0.00 | 0.10 | 0.02 | 65 | 1012.8 |
| 20260502205636 | 47 | 253 | 2.6 | 14.8 | 0.00 | 0.10 | 0.02 | 66 | 1012.8 |
| 20260502205123 | 47 | 266 | 7.0 | 14.8 | 0.00 | 0.10 | 0.02 | 65 | 1012.9 |
| 20260502204617 | 47 | 299 | 8.7 | 13.9 | 0.00 | 0.10 | 0.02 | 65 | 1012.8 |
| 20260502204134 | 47 | 301 | 8.7 | 14.8 | 0.00 | 0.10 | 0.02 | 62 | 1012.9 |
| 20260502203620 | 48 | 289 | 9.6 | 14.8 | 0.00 | 0.10 | 0.02 | 62 | 1012.9 |
| 20260502203136 | 48 | 266 | 7.0 | 13.9 | 0.00 | 0.10 | 0.02 | 61 | 1012.8 |
| 20260502202643 | 48 | 272 | 2.6 | 12.2 | 0.00 | 0.10 | 0.02 | 62 | 1012.8 |
| 20260502202136 | 48 | 289 | 7.0 | 13.9 | 0.00 | 0.10 | 0.02 | 59 | 1012.7 |
| 20260502201624 | 48 | 311 | 6.1 | 13.9 | 0.00 | 0.10 | 0.02 | 59 | 1012.7 |
| 20260502201140 | 49 | 260 | 6.1 | 12.2 | 0.00 | 0.10 | 0.02 | 58 | 1012.7 |
| 20260502200645 | 49 | 324 | 5.2 | 9.6 | 0.00 | 0.13 | 0.02 | 57 | 1012.7 |
| 20260502200118 | 49 | 266 | 5.2 | 10.4 | 0.00 | 0.13 | 0.02 | 58 | 1012.7 |
| 20260502195635 | 49 | 264 | 2.6 | 11.3 | 0.00 | 0.13 | 0.02 | 62 | 1012.7 |
| 20260502195122 | 49 | 245 | 7.0 | 11.3 | 0.00 | 0.13 | 0.02 | 60 | 1012.9 |
| 20260502194619 | 48 | 246 | 6.1 | 12.2 | 0.00 | 0.13 | 0.02 | 58 | 1012.9 |
| 20260502194134 | 49 | 262 | 7.0 | 12.2 | 0.01 | 0.13 | 0.02 | 59 | 1013.0 |
| 20260502193622 | 49 | 241 | 3.5 | 9.6 | 0.01 | 0.13 | 0.02 | 60 | 1013.1 |
| 20260502193117 | 49 | 311 | 3.5 | 14.8 | 0.01 | 0.13 | 0.02 | 61 | 1013.2 |
| 20260502192650 | 49 | 256 | 7.0 | 14.8 | 0.01 | 0.13 | 0.02 | 59 | 1013.1 |
| 20260502192123 | 49 | 309 | 3.5 | 9.6 | 0.01 | 0.13 | 0.02 | 60 | 1013.1 |
| 20260502191638 | 49 | 21 | 3.5 | 9.6 | 0.01 | 0.13 | 0.02 | 60 | 1013.1 |
| 20260502191127 | 49 | 207 | 0.0 | 5.2 | 0.01 | 0.13 | 0.02 | 56 | 1013.2 |
| 20260502190641 | 49 | 203 | 1.7 | 6.1 | 0.01 | 0.16 | 0.02 | 56 | 1013.2 |
| 20260502190134 | 49 | 235 | 1.7 | 6.1 | 0.01 | 0.16 | 0.02 | 57 | 1013.3 |
| 20260502185644 | 49 | 170 | 1.7 | 7.0 | 0.01 | 0.16 | 0.02 | 58 | 1013.3 |
| 20260502185157 | 49 | 207 | 1.7 | 7.0 | 0.01 | 0.16 | 0.02 | 56 | 1013.3 |